Zurück zum Katalog

OBJECT B

AktivHEO
NORAD 100126·UNKNOWN·🇺🇸 United States

Gestartet Jul 21, 2026 von Cape Canaveral Space Force Station

Loading…

Nächste Überflüge (nächste 24 Stunden)

TLE

AktuellSource: Space-Track

Epoche: Sep 8, 2026, 01:44 UTC

1 A0126U 26167B   26251.07283241  .00000237  00000-0  82761-2 0  9992
2 A0126  24.8050  87.0495 7607248 201.6148  89.8873  1.72633797   849

Verfolge OBJECT B in Echtzeit mit AllMySat

Download on the App Store